Location: Góry Miechowskie
(50.3599°N, 20.1803°E)
Time: 20:42:07
(UTC+00:00)

Cosmos 2219 - Pass Details

Date: 21 September 2024
Orbit: 831 x 860 km, 71.1° (Epoch: 13 October)

Event Time Altitude Azimuth Distance (km) Brightness Sun altitude
Rises 03:26:41 0° 197° (SSW) 3,392 6.0 -10.0°
Reaches altitude 10° 03:29:07 10° 195° (SSW) 2,466 5.4 -9.6°
Maximum altitude 03:34:43 66° 114° (ESE) 930 3.7 -8.7°
Drops below altitude 10° 03:40:24 10° 34° (NNE) 2,500 6.3 -7.8°
Sets 03:42:54 0° 31° (NNE) 3,444 7.0 -7.4°
